Home > Time Zones > World Clock > Weather > U.S.A. > Yuma > Past weeks

Flag for U.S.A. Weather past 2 weeks in Yuma, Arizona, U.S.A.

Now
80 °F

Passing clouds.


Feels Like: 80 °F
Forecast: 78 / 111 °F
Wind: No wind

Location: Yuma Marine Corps Air Station

Current Time: Jul 22, 2014 at 7:18:14 AM

Latest Report: Jul 22, 2014 at 5:57 AM


Visibility: 10 mi

Pressure: 29.86 "Hg

Humidity: 38%

Dew point: 52 °F

Location of YumaLocation

Historic Weather in Yuma — Graph

°F

Yuma temperature yesterday

Maximum temperature yesterday: 108 °F (at 3:57 PM)
Minimum temperature yesterday: 81 °F (at 5:57 AM)
Average temperature yesterday: 94 °F

Past Weeks' High & Low Weather Summary

 TemperatureHumidityPressure
High111 °F (Jul 7, 3:57 PM)65% (Jul 10, 4:57 AM)29.94 "Hg (Jul 10, 4:57 AM)
Low79 °F (Jul 17, 5:57 AM)4% (Jul 17, 4:57 PM)29.64 "Hg (Jul 7, 5:57 PM)
Average95 °F27%29.81 "Hg
* Reported Jul 7 5:57 AM — Jul 22 5:57 AM, Yuma, Weather by CustomWeather, © 2014

Note: Actual official high and low records may vary slightly from our data, if they occured in-between our weather recording intervals... More about our weather records

Advertising

Yuma weather history for previous 24 hours

 ConditionsComfort  
Time TempWeatherWind HumidityBarometerVisibility
5:57 AM
Jul 22
80 °FPassing clouds.No wind38%29.86 "Hg10 mi
4:57 AM83 °FClear.No wind36%29.85 "Hg10 mi
3:57 AM84 °FClear.No wind33%29.84 "Hg10 mi
2:57 AM84 °FClear.3 mph35%29.84 "Hg10 mi
1:57 AM85 °FClear.5 mph31%29.85 "Hg10 mi
12:57 AM85 °FClear.3 mph29%29.85 "Hg10 mi
11:57 PM
Jul 21
88 °FClear.No wind27%29.85 "Hg10 mi
10:57 PM89 °FClear.5 mph25%29.85 "Hg10 mi
9:57 PM92 °FClear.6 mph19%29.85 "Hg10 mi
8:57 PM97 °FClear.6 mph15%29.82 "Hg10 mi
7:57 PM103 °FClear.3 mph8%29.79 "Hg10 mi
6:57 PM106 °FSunny.5 mph6%29.79 "Hg10 mi
5:57 PM107 °FSunny.6 mph6%29.79 "Hg10 mi
3:57 PM108 °FPassing clouds.7 mph8%29.81 "Hg10 mi
2:57 PM106 °FPassing clouds.8 mph12%29.83 "Hg10 mi
1:57 PM104 °FPassing clouds.6 mph15%29.86 "Hg10 mi
12:57 PM102 °FPassing clouds.3 mph17%29.88 "Hg10 mi
11:57 AM99 °FPassing clouds.No wind22%29.90 "Hg10 mi
10:57 AM97 °FPassing clouds.9 mph24%29.91 "Hg10 mi
9:57 AM94 °FPassing clouds.8 mph32%29.92 "Hg10 mi
7:57 AM87 °FSunny.14 mph55%29.90 "Hg10 mi
Weather by CustomWeather, © 2014

See weather overviewHow to use our weather pages